Regional Weather Roundup
Issued by NWS

Home | Current Version | Previous Version | Graphics & Text | Print | Product List | Glossary On
Versions: 1 2 3 4 5 6 7 8 9 10 11 12 13 14 15 16 17 18 19 20 21 22 23 24 25 26 27 28 29 30 31 32 33 34 35 36 37 38 39 40 41 42 43 44 45 46 47 48 49 50
000
ASUS45 KSLC 112210
RWRUT

UTAH REGIONAL WEATHER ROUNDUP
NATIONAL WEATHER SERVICE SALT LAKE CITY UT
300 PM MST THU FEB 11 2016

UTZ001>011-023>025-112300-

NORTHERN UTAH

CITY           SKY/WX    TMP DP  RH WIND       PRES   REMARKS
BRIGHAM CITY   CLOUDY    28  26  91 CALM      30.46F
DUGWAY         PTSUNNY   33  31  94 S6        30.43  WCI  28
HILL AFB       NOT AVBL
LOGAN          CLOUDY    25  23  92 CALM      30.44F FOG
OGDEN          CLOUDY    28  26  92 NW6       30.42F FOG     WCI  22
PROVO AIRPORT  FOG       27  23  86 CALM      30.42F VSB 1/2
SALT LAKE CITY PTSUNNY   33  27  78 NW7       30.43F HAZE    WCI  27
VERNAL         SUNNY     27  19  72 SE7       30.38S HAZE    WCI  19
WENDOVER       CLOUDY    30  27  86 SE3       30.44F
HEBER CITY     MOSUNNY   36  21  55 CALM      30.37S
WEST JORDAN    SUNNY     34  28  80 NW5       30.43F WCI  30

$$

UTZ012>022-026-027-112300-

SOUTHERN/CENTRAL UTAH

CITY           SKY/WX    TMP DP  RH WIND       PRES   REMARKS
BLANDING       MOSUNNY   44  28  53 CALM      30.41F
BRYCE CANYON   SUNNY     44  22  41 SE9       30.39F
CEDAR CITY     SUNNY     43  27  53 N5        30.33F
DELTA          PTSUNNY   21  20  96 CALM      30.41F
HANKSVILLE     SUNNY     46  32  57 CALM      30.39F
MILFORD        MOSUNNY   23  18  81 S3        30.37F
MOAB/CYNLANDS  PTSUNNY   41  31  67 NW8       30.36F
PRICE          SUNNY     42  26  53 SE3       30.37S
ST GEORGE      PTCLDY    63  27  25 CALM      30.26F

$$

REGIONAL REPORTS     COLORADO/ARIZONA

CITY           SKY/WX    TMP DP  RH WIND       PRES   REMARKS
CRAIG, CO      CLOUDY    30  22  72 CALM      30.36F
GRAND JUNCTION SUNNY     41  27  57 N6        30.36F
RIFLE          SUNNY     42  18  37 CALM      30.36F
MONTROSE       SUNNY     48  22  35 CALM      30.37F
CORTEZ         CLOUDY    51  24  34 SE3       30.34F
PAGE, AZ       SUNNY     55  29  36 NE6       30.32F
GRAND CANYON   SUNNY     65  19  17 N5        30.35S
KINGMAN        SUNNY     73  23  15 N6        30.21F
FLAGSTAFF      SUNNY     59  16  18 E7        30.36S

$$

REGIONAL REPORTS    NEVADA/IDAHO/WYOMING

CITY           SKY/WX    TMP DP  RH WIND       PRES   REMARKS
LAS VEGAS, NV  MOSUNNY   72  20  14 CALM      30.16F
ELY            MOSUNNY   42  25  50 CALM      30.34F
ELKO           PTSUNNY   34  23  64 NE9       30.35F WCI  27
POCATELLO, ID  CLOUDY    36  25  64 N8        30.38S WCI  30
BURLEY         MOSUNNY   45  32  60 NE12      30.31F
EVANSTON, WY   CLOUDY    41  20  43 W7        30.37F
ROCK SPRINGS   CLOUDY    43  22  43 W24G35    30.31F
KEMMERER       CLOUDY    41  23  48 NW8       30.37S

$$



USA.gov is the U.S. government's official web portal to all federal, state and local government web resources and services.